STARLINK-32203, 60331

Orbit data source: Space-Track

STARLINK-32203, 60331 is a payload satellite owned by SpaceX/Seattle (US) in LEO that was launched on Fri, 02 Aug 2024 UTC via an FALCON 9 launch vehicle from the Air Force Eastern Test Range (AFETR). Payload-class satellites include a variety of spacecraft equipped with specific instruments for various scientific and technological missions. These include communications satellites like Starlink; space stations such as the ISS; scientific satellites like the Hubble; Earth observation satellites from companies like Planet Labs, Umbra, and HawkEye 360; GPS; miniature CubeSats for education and research; and military/defense satellites.

Loading next visibility...
Identifier
60331, 2024-136C
Orbit
LEO
Country
Flag of USUS
Related business
Manufacturer
SpaceX/Seattle
Mission
Operational Commercial Communications
Bus & Motor
STARLINK V2M, Unknown motor
Mass
730 kg wet, ~700 kg dry
Launch date (UTC)
2024-08-02 (2 years ago)
Launch vehicle
FALCON 9
Launch site
Air Force Eastern Test Range (AFETR)
Object type
Payload
Rocket body
Debris
Shape & HBR
Box + 2 Pan, 17.7 m
Radar Cross Section
33.884 m², Large (>1 m²)

Expand to show TLE details & history
Last TLE update: 1 day ago

TLE from 1 day ago
0 STARLINK-32203
1 60331U 24136C   26124.38955599  .00005594  00000-0  20078-3 0  9990
2 60331  53.1577 166.9158 0001264  68.4818 291.6317 15.30211771 98337
Epoch: 2026-05-04T09:20Z
TLE epoch observation values (Epoch: 2026-05-04T09:20:57.637Z)
Latitude
-0.00006°
Longitude
164.39615°
Altitude
475.76 km
Speed
7.629 km/s
True Right ascension
11h 07m 39s
True Declination
0° 00' 00"
Sunlit
Object was in full shadow at epoch
Visualization orbit readout
Latitude
Unknown
Longitude
Unknown
Altitude
Unknown
Speed
Unknown
Apparent Right ascension
Unknown
Apparent Declination
Unknown
Sunlit
N/A
Visualization observer readout
Local Sidereal Time
17:02:23
Azimuth
Unknown
Elevation
Unknown
Doppler factor
Unknown
Orbital elements
Apogee altitude
476.303 km
Perigee altitude
474.57 km
Semi-major axis
6,853.574 km
Eccentricity
0.00013
Inclination
53.1577°
RAAN
166.9158°
Arg. of periapsis
68.4818°
True anomaly
291.61823°
Mean anomaly
291.6317°
Eccentric anomaly
291.62497°
Mean motion
3.82532 °/min
Orbital period
94.11 mins
BSTAR
0.00020078
Loading maneuver chart data...
Computing Atmospheric mass density...
Loading historical data...
Loading historical data...
Loading historical data...
Loading historical data...
Loading historical data...
Loading historical data...
Loading historical data...

Documentation

Showing up to 5 results
|